Back to catalog

CZ-6A DEB

AliveSSO
NORAD 55524·DEBRIS·🇨🇳 China

Launched Nov 11, 2022 from Taiyuan Satellite Launch Center

Loading…

Next Passes (next 24 hours)

TLE

FreshSource: Space-Track

Epoch: Sep 14, 2026, 11:20 UTC

1 55524U 22151XW  26257.47273877  .00001734  00000-0  87467-3 0  9999
2 55524  98.8521 262.3022 0055022  76.3903 284.3391 14.16810839192491

Track CZ-6A DEB in real time with AllMySat

Download on the App Store